User: anonymous   Login
Location: Enborne
(51.3833°N, 1.3667°W)
Time: 02:36:13
(UTC+00:00)
Language:

CENTAUR R/B - Orbit

View from above orbital plane
View from above orbital plane
View from above satellite
View from above satellite

Ground track
Ground track

The orbit data is extracted from the following two-line orbital elements,

1 26906U 01040B   20327.22264234 0.00000000  00000-0  00000-0 0    00
2 26906  63.4592 355.3042 0461125 339.3499  20.6500 13.44066569    02
Epoch (UTC): 22 November 2020 05:20:36
Eccentricity: 0.0461125
inclination: 63.4592°
perigee height: 749 km
apogee height: 1439 km
right ascension of ascending node: 355.3042°
argument of perigee: 339.3499°
revolutions per day: 13.44066569
mean anomaly at epoch: 20.6500°
orbit number at epoch: 0

The dashed part of the orbit path shows where the satellite is in the earth's shadow,  

DLR